Location: Drocourt
(49.0571°N, 1.7669°E)
Time: 15:58:44
(UTC+00:00)

Cosmos 1844 Rocket - Pass Details

Date: 09 February 2023
Orbit: 825 x 843 km, 71.0° (Epoch: 25 March)

Event Time Altitude Azimuth Distance (km) Brightness Sun altitude
Rises 17:40:08 0° 327° (NNW) 3,375 6.1 -6.6°
Reaches altitude 10° 17:42:38 10° 322° (NW) 2,437 5.4 -7.0°
Maximum altitude 17:47:58 48° 250° (WSW) 1,073 3.9 -7.9°
Drops below altitude 10° 17:53:16 10° 178° (S) 2,423 5.2 -8.7°
Sets 17:55:45 0° 172° (S) 3,354 5.9 -9.1°
